sat.trackr.live / text

‹ back to catalog

STARLINK-31379

NORAD 58984 · 2024-031V

PAYLOAD ACTIVE UNKNOWN

§ Identity

Operator
Country
US
Launch date
2024-02-15
Launch site
AFWTR
Launch vehicle
Mass (kg)
RCS (m²)

Purposes: comms

External: N2YO · Heavens-Above · Gunter

§ Orbital elements

Epoch: 2026-09-20T00:01:34.804128Z

Period
93.85 min
Inclination
53.1579°
Eccentricity
0.0000930
Mean motion
15.34391160 rev/d
Perigee alt
462.1 km
Apogee alt
463.4 km
Semi-major
6,840.9 km
B*
1.3648e-5
RAAN
111.9716°
Arg perigee
82.5525°
Mean anomaly
277.5584°
Rev number
14,629

§ Raw data

STARLINK-313791 58984U 24031V   26263.00109727  .00000085  00000+0  13648-4 0  99972 58984  53.1579 111.9716 0000930  82.5525 277.5584 15.34391160146294

JSON: /api/v1/satellites/58984 · /tle

For live sub-satellite position, see the globe view (requires WebGL).

§ Visibility from observer

Set your observer location to see the next 7 days of passes ≥ 10°. The values pass through the URL so the page stays shareable.

No JS? Fill the form by hand. The geolocation button needs JavaScript.